ランキン彗星

P/2024 T2 ( Rankin )

English version
Home page
Updated on May 2, 2025

---------------------------------------------------------------------

・ プロフィール

発見日 2024年10月4日
発見光度 21.1等
発見者 David Rankin (Mt. Lemmon Survey)

・ 写真集

・ 軌道要素

Epoch 2025 May 5.0 TT = JDT 2460800.5
T 2024 Dec. 8.33338 TT                                  Payne
q   1.9722914            (2000.0)            P               Q
n   0.06427398     Peri.  343.82765     -0.12644321     -0.97037760
a   6.1722843      Node   113.06135     +0.93310935     -0.18677581
e   0.6804601      Incl.   12.92896     +0.33662896     +0.15323873
P  15.3
From 431 observations 2024 Oct. 4-2025 Apr. 21, mean residual 0".4.

・ 光度変化

        m1 = 7.7 + 5 logΔ + 30.0 log r(t - 60)

---------------------------------------------------------------------

軌道要素はM.P.E.C. 2025-J08に掲載されたものです。
光度グラフはComet for Windowsで作成したものです。

---------------------------------------------------------------------

Copyright(C) Seiichi Yoshida (comet@aerith.net). All rights reserved.